TimeMDT,TemperatureF,Dew PointF,Humidity,Sea Level PressureIn,VisibilityMPH,Wind Direction,Wind SpeedMPH,Gust SpeedMPH,PrecipitationIn,Events,Conditions,WindDirDegrees,DateUTC
12:53 AM,46.0,39.9,79,30.15,10.0,East,4.6,-,N/A,,Clear,100,2013-06-02 06:53:00
1:53 AM,43.0,39.0,86,30.14,10.0,East,8.1,-,N/A,,Clear,80,2013-06-02 07:53:00
2:53 AM,43.0,39.0,86,30.12,10.0,East,5.8,-,N/A,,Clear,100,2013-06-02 08:53:00
3:53 AM,43.0,39.0,86,30.11,10.0,East,4.6,-,N/A,,Clear,100,2013-06-02 09:53:00
4:53 AM,42.1,39.0,89,30.09,10.0,ESE,4.6,-,N/A,,Clear,110,2013-06-02 10:53:00
5:53 AM,42.1,39.0,89,30.10,10.0,ESE,8.1,-,N/A,,Clear,120,2013-06-02 11:53:00
6:53 AM,46.9,41.0,80,30.07,10.0,ESE,9.2,-,N/A,,Clear,110,2013-06-02 12:53:00
7:53 AM,53.1,41.0,64,30.05,10.0,ESE,8.1,-,N/A,,Clear,120,2013-06-02 13:53:00
8:53 AM,57.9,42.1,56,30.02,10.0,SE,10.4,-,N/A,,Clear,130,2013-06-02 14:53:00
9:53 AM,66.0,42.1,42,29.98,10.0,SSE,10.4,-,N/A,,Clear,150,2013-06-02 15:53:00
10:53 AM,72.0,43.0,35,29.94,10.0,South,16.1,20.7,N/A,,Clear,170,2013-06-02 16:53:00
11:53 AM,75.9,43.0,31,29.90,10.0,South,13.8,-,N/A,,Clear,170,2013-06-02 17:53:00
12:53 PM,78.1,43.0,29,29.88,10.0,SSE,16.1,23.0,N/A,,Clear,160,2013-06-02 18:53:00
1:53 PM,80.1,37.9,22,29.85,10.0,South,16.1,21.9,N/A,,Clear,180,2013-06-02 19:53:00
2:53 PM,81.0,39.9,23,29.83,10.0,SSE,13.8,23.0,N/A,,Clear,160,2013-06-02 20:53:00
3:53 PM,81.0,39.9,23,29.78,10.0,SSE,15.0,-,N/A,,Clear,160,2013-06-02 21:53:00
4:53 PM,82.0,41.0,23,29.75,10.0,SE,20.7,28.8,N/A,,Clear,140,2013-06-02 22:53:00
5:53 PM,82.0,39.0,22,29.73,10.0,SSE,23.0,26.5,N/A,,Clear,150,2013-06-02 23:53:00
6:53 PM,79.0,41.0,26,29.70,10.0,SE,12.7,-,N/A,,Clear,140,2013-06-03 00:53:00
7:53 PM,75.0,44.1,33,29.70,10.0,SE,15.0,-,N/A,,Clear,130,2013-06-03 01:53:00
8:53 PM,69.1,45.0,42,29.71,10.0,ESE,19.6,25.3,N/A,,Clear,110,2013-06-03 02:53:00
9:53 PM,66.0,45.0,47,29.71,10.0,ESE,18.4,-,N/A,,Clear,110,2013-06-03 03:53:00
10:53 PM,64.0,45.0,50,29.70,10.0,ESE,21.9,-,N/A,,Clear,110,2013-06-03 04:53:00
11:53 PM,64.0,45.0,50,29.69,10.0,ESE,20.7,29.9,N/A,,Clear,120,2013-06-03 05:53:00